Volver al catálogo

STARLINK-36993

ActivoComunicacionesVLEO
NORAD 67994·PAYLOAD·🇺🇸 United States

Lanzado Feb 27, 2026 desde Vandenberg Space Force Base

Loading…

Próximos Pases (próximas 24 horas)

TLE

ActualizadoSource: CelesTrak SupGP

Época: Sep 15, 2026, 03:16 UTC

1 67994C 26039J   26258.13659722 -.00023795  00000+0 -86160-3 0  2582
2 67994  43.0039  59.0276 0001838 271.3755 206.4715 15.27598639    16

Sigue STARLINK-36993 en tiempo real con AllMySat

Download on the App Store